Racecast

Ryan Prielipp

Temperance Bedford (MI) · 12 · SECMI D1MONROE · Compare head to head

what a rating means
100 is the average runner in the athlete's pool; a rating of 133 means 33% faster than that average runner. Ratings are distance-normalised and course-adjusted, so a hard course and a fast track land on one number. Each pool (high school boys, college women, middle school…) has its own average, and the HS-equivalent view puts every pool on the high-school scale.
Athlete rating 108.7 2022 TF season
Best race 116.3 XC
Races 82
Seasons 8 2015 — 2022

RankedNation #50987·MI #2045·MI D1 #1207·SEC #138·Team #35 ?

Rating scale ?
Speed rating — all races

Cross Country

XC speed rating

2021 XC 109.0

Temperance Bedford (MI) · Grade 12

Date Meet Event Result Place Rating Difficulty PR/SR Flags
2021-10-21 Hudson Mills Metropark - OFFICIAL 5000m 20:04 101st · 12th on team 104.6 -2.7% ★CR CSR
2021-10-16 Munson Park 5000m 21:19.3 29th · 6th on team 99.4 -1.4%
2021-10-02 Lake Erie Metro Park OFFICIAL 5000m 18:24.7 4th · 1st on team 115.0 -1.4% ★CR CSR
2021-09-28 Munson Park 5000m 19:06.6 23rd · 1st on team 111.1 -1.4% ★CR CSR
2021-09-24 Ella Sharp Park OFFICIAL 5000m 18:17.6 9th · 1st on team 116.3 -2.2% ★PR ★CR ★R SR CSR RSR
2021-09-11 Hedges Boyer Park 5000m 19:56 90th · 7th on team 105.3 -2.6% ★CR CSR
2021-09-04 BGSU 5000m 18:35.3 64th · 8th on team 112.3 -2.6% PR ★CR SR CSR RSR
2021-08-28 Walsh Park 5000m 19:44.1 2nd · 1st on team 108.2 -1.1% ★CR SR CSR RSR

2020 XC 108.7

Temperance Bedford (MI) · Grade 11

Date Meet Event Result Place Rating Difficulty PR/SR Flags
2020-10-31 Lake Erie Metro Park OFFICIAL 5000m 19:34.2 54th · 7th on team 107.8 -1.4% CSR
2020-10-24 Indian Creek OFFICIAL 5000m 18:41.7 33rd · 6th on team 112.7 -1.7% R RSR
2020-10-17 Indian Creek OFFICIAL 5000m 18:38.6 27th · 1st on team 112.4 -1.7% PR ★CR SR CSR RSR
2020-10-03 Indian Creek OFFICIAL 5000m 18:58.2 18th · 10th on team 110.2 -1.7% PR CR SR CSR RSR
2020-09-26 Indian Creek OFFICIAL 5000m 19:24.1 34th · 11th on team 110.2 -1.7% CR SR CSR RSR
2020-08-29 Indian Creek OFFICIAL 5000m 20:07 15th · 10th on team 104.9 -1.7% SR CSR RSR
2020-08-22 Indian Creek OFFICIAL 5000m 20:39 20th · 11th on team 103.1 -1.7% SR CSR RSR

2019 XC 102.4

Temperance Bedford (MI) · Grade 10

Date Meet Event Result Place Rating Difficulty PR/SR Flags
2019-10-26 Lake Erie Metro Park OFFICIAL 5000m 19:12.9 47th · 6th on team 108.9 -1.4% PR CR SR CSR RSR
2019-10-17 Hudson Mills Metropark - OFFICIAL 5000m 20:11.5 153rd · 8th on team 102.3 -2.7% CR CSR
2019-10-12 Munson Park 5000m 20:16.9 30th · 6th on team 103.2 -1.4% CR CSR
2019-10-05 Portage West MS 5000m 19:27.1 240th · 7th on team 105.9 -2.5% PR ★CR SR CSR
2019-09-28 Lake Erie Metro Park OFFICIAL 5000m 21:03.6 91st · 6th on team 98.8 -1.4% CSR
2019-09-24 Indian Creek OFFICIAL 5000m 19:49.2 55th · 3rd on team 106.1 -1.7% PR CR SR CSR RSR
2019-09-10 Hudson Mills Metropark - OFFICIAL 5000m 21:32 105th · 6th on team 95.4 -2.7% CR CSR
2019-09-07 Hedges Boyer Park 5000m 21:02.8 313th · 4th on team 98.3 -2.6% CR SR CSR RSR

2018 XC 98.3

Temperance Bedford (MI) · Grade 9

Date Meet Event Result Place Rating Difficulty PR/SR Flags
2018-09-29 Lake Erie Metro Park OFFICIAL 5000m 20:44.9 129th · 18th on team 100.9 -1.4% PR CR SR CSR RSR
2018-09-25 Cass Benton Park OFFICIAL 5000m 21:38.3 93rd · 12th on team 99.1 +1.3% ★CR CSR RSR
2018-09-21 Ella Sharp Park OFFICIAL 5000m 21:26.3 187th · 16th on team 97.8 -2.2% PR CR SR CSR RSR
2018-09-06 Willow Metropark OFFICIAL 5000m 21:32.5 139th · 12th on team 95.6 -2.3% PR ★CR SR CSR RSR
2018-08-31 Oakland University 4000m 17:55.7 136th · 16th on team -0.9% ★PR ★CR SR CSR

2017 XC 107.6

Temperance Bedford (MI) · Grade 8

Date Meet Event Result Place Rating Difficulty PR/SR Flags
2017-10-21 Hudson Mills Metropark - OFFICIAL 3218m 14:03.1 32nd · 7th on team 110.4 +0.3%
2017-10-11 Huron Meadows Metropark OFFICIAL 3200m 13:44.2 13th · 4th on team 110.9 -1.5% ★PR ★CR SR CSR
2017-09-30 Lake Erie Metro Park OFFICIAL 3218m 13:39.6 65th · 14th on team 110.3 -1.4% ★CR CSR
2017-09-28 Hudson Mills Metropark - OFFICIAL 3218m 13:36.8 13th · 4th on team 111.8 +0.3% ★PR ★CR SR CSR
2017-09-23 Maumee Bay State Park 3200m 14:00 77th · 12th on team 112.6 +1.7% PR ★CR R SR CSR RSR
2017-09-13 Indian Creek OFFICIAL 3200m 14:07.3 18th · 5th on team 106.2 -1.7% PR ★CR SR CSR RSR
2017-09-09 Hedges Boyer Park 2816m 14:17 92nd · 6th on team 94.2 ★PR ★CR SR CSR
2017-08-31 Eastwood HS 3200m 14:30.2 39th · 5th on team 104.7 -0.3% PR ★CR SR CSR RSR

2016 XC 97.2

Temperance Bedford (MI) · Grade 7

Date Meet Event Result Place Rating Difficulty PR/SR Flags
2016-10-12 Heritage Park (Adrian) OFFICIAL 3218m 15:16.8 119th · 27th on team 100.4 -0.2% ★CR CSR
2016-10-08 Monroe County Comm College 3218m 14:26 48th · 21st on team 103.8 -2.5% ★CR CSR
2016-09-28 Hudson Mills Metropark - OFFICIAL 3218m 16:39.4 169th · 31st on team 92.7 +0.3% CR CSR
2016-09-24 Maumee Bay State Park 3218m 14:14.9 111th · 17th on team 109.3 +1.7% PR ★CR R SR CSR RSR
2016-09-14 Rolling Hills 3000m 14:41.7 104th · 27th on team 80.5 +3.5% ★PR ★CR SR CSR
2016-09-10 Hedges Boyer Park 3200m 16:16.7 36th · 13th on team 94.2 -0.7% ★CR CSR
2016-09-01 Eastwood HS 3200m 15:25.2 151st · 21st on team 99.6 -0.3% PR CR SR CSR RSR

2015 XC 97.5

Temperance Bedford (MI) · Grade 6

Date Meet Event Result Place Rating Difficulty PR/SR Flags
2015-10-24 Hudson Mills Metropark - OFFICIAL 2000m 8:29.7 84th · 7th on team 102.4 -7.5% ★PR ★CR R SR CSR RSR
2015-10-17 Munson Park 2000m 8:50.4 27th · 8th on team 100.4 -5.1% PR ★CR R SR CSR RSR
2015-10-14 Munson Park 2000m 9:08.4 22nd · 9th on team 96.3 -5.1% PR CR R SR CSR RSR
2015-09-26 Sterling State Park 1850m -2.9% ★PR ★CR SR CSR
2015-09-16 Mill Pond Park 2414m 13:14.5 31st · 11th on team 90.9 +5.3% ★PR ★CR R SR CSR RSR

Track & Field

TF speed rating

2022 TF 108.2

Temperance Bedford (MI) · Grade 12

Date Meet Event Result Place Rating Difficulty PR/SR Flags
2022-05-20 MHSAA LP Region 04-1 @ Saline hj NH -0.7%
2022-05-13 SEC-HS: Red Division Championship hj 5-06.00 +0.5%
2022-05-09 Eagle Invite (Clay) hj 5-02.00 -0.4%
2022-05-04 SEC-HS: Skyline at Bedford discus 84'07.00 +0.1%
2022-05-04 SEC-HS: Skyline at Bedford hj 5'04.00 +0.1%
2022-05-04 SEC-HS: Skyline at Bedford 800m 2:19.24 12th · 3rd on team 109.4 +0.1% ★PR SR RSR
2022-04-29 St. Francis Knight Relays hj 5-06.00 -0.6%
2022-04-26 SEC-HS: Bedford & Monroe at Dexter hj 5-00.00 -0.1%
2022-04-26 SEC-HS: Bedford & Monroe at Dexter 800m 2:21.78 11th · 2nd on team 107.8 -0.1%
2022-04-23 Warrior Classic hj 5' 6 +0.8%
2022-04-21 SEC-HS: Saline & Bedford at Huron hj 5'02.00 +0.2%
2022-04-21 SEC-HS: Saline & Bedford at Huron 800m 2:22.54 16th · 7th on team 107.4 +0.2%
2022-04-12 SEC-HS: Lincoln & Pioneer at Bedford hj 5'04.00 +0.2%
2022-04-12 SEC-HS: Lincoln & Pioneer at Bedford 400m 57.87 6th · 3rd on team +0.2% ★PR SR
2022-03-24 '22 SEC Conference Invite hj 5-02.00 -0.3%
2022-03-24 '22 SEC Conference Invite 800m 2:19.99 21st · 2nd on team 108.2 -0.3% PR SR RSR

2021 TF 104.0

Temperance Bedford (MI) · Grade 11

Date Meet Event Result Place Rating Difficulty PR/SR Flags
2021-05-19 Lincoln JV Invite 1600m 5:21.94 46th · 1st on team 106.4 +0.5% ★PR SR
2021-05-11 SEC-HS: Bedford & Ypsi vs Skyline (@Lincoln) 800m 2:26.11 6th · 5th on team 105.4 +0.5%
2021-05-04 SEC-HS: Bedford at Monroe 800m 2:21.94 4th · 3rd on team 107.8 +0.4% PR SR RSR
2021-04-27 SEC-HS: Bedford at AA Pioneer 1600m 5:36.69 13th · 1st on team 102.3 +0.9% PR SR
2021-04-24 Warrior Classic 800m 2:28.9 13th · 2nd on team 103.3 +0.8% PR SR RSR
2021-04-22 SEC-HS: AA Huron, Saline at Bedford 800m 2:30.33 19th · 3rd on team 102.1 +0.2% PR SR RSR
2021-03-30 Bedford at Whitmer 800m 2:30.9 4th · 2nd on team 100.9 -0.6% PR SR RSR

2019 TF 94.1

Temperance Bedford (MI) · Grade 9

Date Meet Event Result Place Rating Difficulty PR/SR Flags
2019-05-23 Freshman Beck Invitational 1600m 6:03 7th · 3rd on team 96.0 +1.3%
2019-05-23 Freshman Beck Invitational 3200m 13:42 4th · 2nd on team 91.7 +1.3%
2019-05-15 Eagle Invite 3200m 13:16.46 24th · 3rd on team 93.4 +0.5% ★PR SR
2019-05-15 Eagle Invite 1600m 5:49.69 95th · 10th on team 98.3 +0.5% PR SR RSR
2019-04-30 SEC-R: Monroe & Bedford @ Skyline 1600m 5:50.51 39th · 11th on team 98.0 +0.5% PR SR RSR
2019-04-23 SEC Red Division - Bedford vs Saline 1600m 5:56.74 28th · 14th on team 96.7 +0.1% PR SR RSR
2019-04-09 SEC-R: Bedford @ Pioneer 1600m 6:41.13 36th · 16th on team 86.3 +0.9%
2019-04-09 SEC-R: Bedford @ Pioneer 100m 15.43 51st · 30th on team +0.9% ★PR SR
2019-03-23 Bedford @ Ida Scrimmage 800m 2:47.96 17th · 12th on team 91.8 +1.3% PR SR RSR
2019-03-23 Bedford @ Ida Scrimmage 1600m 6:07.02 19th · 15th on team 94.4 +1.3% PR SR RSR

2018 TF 108.2

Temperance Bedford (MI) · Grade 8

Date Meet Event Result Place Rating Difficulty PR/SR Flags
2018-05-16 Hornet MS Relays 1600m 6:11.08 49th · 6th on team 108.2 -0.3% PR SR RSR